Regional Weather Roundup
Issued by NWS

Home | Current Version | Previous Version | Text Only | Print | Product List | Glossary On
Versions: 1 2 3 4 5 6 7 8 9 10 11 12 13 14 15 16 17 18 19 20 21 22 23 24 25 26 27
000
ASUS45 KSLC 210110
RWRUT

UTAH REGIONAL WEATHER ROUNDUP
NATIONAL WEATHER SERVICE SALT LAKE CITY UT
700 PM MDT FRI OCT 20 2017

UTZ001>011-023>025-210200-

NORTHERN UTAH

CITY           SKY/WX    TMP DP  RH WIND       PRES   REMARKS
BRIGHAM CITY   PTCLDY    46  23  40 CALM      29.91R
HILL AFB       CLOUDY    45  26  48 NW10      29.90R
LOGAN          MOCLDY    43  36  76 W3        29.89R
OGDEN          MOCLDY    44  25  47 NW7       29.90R
SALT LAKE CITY PTCLDY    50  28  42 NW12      29.90R
TOOELE VALLEY  PTCLDY    46  25  42 NW10      29.92R
WENDOVER       PTCLDY    47  20  34 W17       29.94R
WEST JORDAN    PTCLDY    43  29  59 NW7       29.91R

$$

UTZ011>015-024>027-210200-

CENTRAL/NORTHEAST UTAH

CITY           SKY/WX    TMP DP  RH WIND       PRES   REMARKS
PROVO AIRPORT  MOCLDY    47  27  45 N13       29.90R
MOAB/CANYONLAN CLOUDY    64  32  30 NW26G32   29.60R
DELTA          MOCLDY    50  18  27 N14G20    29.89R
PRICE          MOCLDY    45  27  49 NW24G41   29.75R
RICHFIELD      PTCLDY    48  19  32 N5        29.89R
ROOSEVELT      CLOUDY    50  25  37 W18G26    29.71R
VERNAL         CLOUDY    56  27  32 SW16      29.67R

$$

UTZ013>016-019>022-027-210200-

SOUTHERN UTAH

CITY           SKY/WX    TMP DP  RH WIND       PRES   REMARKS
BRYCE CANYON   LGT RAIN  44  34  67 W17G29    29.89R
CEDAR CITY     CLOUDY    51  34  52 N14G21    29.81R
MILFORD        CLOUDY    52  19  27 N22       29.84R
ST GEORGE      MOCLDY    73  33  23 W13       29.70R
HANKSVILLE     CLOUDY    57  32  38 NW18G32   29.70R
KANAB          PTCLDY    63  30  29 SW13G21   29.81R
BLANDING         N/A     65  18  16 SW7       29.75S

$$

REGIONAL REPORTS     COLORADO/ARIZONA

CITY           SKY/WX    TMP DP  RH WIND       PRES   REMARKS
CRAIG, CO      CLOUDY    50  33  52 NW16G36   29.69R
GRAND JUNCTION CLOUDY    69  24  18 SW9       29.56S
RIFLE, CO      CLOUDY    68  24  19 S20G28    29.60F
MONTROSE, CO   CLOUDY    67  23  19 S12       29.67F
CORTEZ, CO     CLOUDY    63  23  21 SW12      29.72F
COLORADO CITY  CLOUDY    64  32  29 W14G25    29.82R
PAGE, AZ       MOCLDY    69  29  22 W21G44    29.67R
GRAND CANYON   PTCLDY    57  30  35 SW18G26   29.88R
KINGMAN, AZ    MOCLDY    69  37  30 SW15      29.79S
FLAGSTAFF, AZ  MOCLDY    53  36  52 SW23G32   29.90F

$$

REGIONAL REPORTS    NEVADA/IDAHO/WYOMING

CITY           SKY/WX    TMP DP  RH WIND       PRES   REMARKS
LAS VEGAS, NV  PTCLDY    76  36  23 NW13      29.71S
ELY, NY        MOCLDY    41  11  29 N9        29.96R
ELKO, NV       MOCLDY    42  19  39 W9        29.96R
POCATELLO, ID  PTCLDY    41  30  65 SW26G33   29.85R
BURLEY, ID     PTCLDY    39  32  76 SW14      29.90R WCI  31
FORT BRIDGER,  MOCLDY    34  29  82 W22G31    29.87R WCI  22
EVANSTON, WY   CLOUDY    32  26  78 W16       29.88R WCI  21
ROCK SPRINGS,  CLOUDY    37  24  59 W24G37    29.79R WCI  26

$$




USA.gov is the U.S. government's official web portal to all federal, state and local government web resources and services.